Temperature
13 13 14 14 14 14 14 14 15 15 14 14 14 14 14 15 14 14 14 14 14 14 14 14 14 14 14 14 13 13 13 13 13 13 13 13 13 14 14 14 14 14 13
13 13 14 14 14 14 14 14 14 14 14 14 14 15 14 15 15 14 14 14 14 14 14 14 14 14 14 13 13 13 13 13 13 12 12 12 13 14 14 13 13 13 13
13 13 13 14 14 14 14 14 14 14 14 14 14 14 14 14 14 14 14 14 14 14 14 14 14 14 13 13 13 13 13 13 13 12 12 12 12 12 12 13 13 12 12
12 13 14 14 14 14 14 14 14 14 14 14 14 14 14 14 14 14 14 14 14 14 14 14 13 13 13 13 13 13 13 12 12 12 12 12 11 11 11 12 12 12 12
12 13 13 13 14 14 14 14 14 14 14 14 14 14 14 14 14 14 14 14 13 13 13 13 13 13 13 13 13 13 13 12 12 12 12 12 11 11 11 11 11 11 11
12 12 13 13 13 13 14 14 14 13 13 13 13 13 13 13 13 13 13 13 13 13 13 13 13 13 13 13 13 12 12 12 12 12 12 11 11 11 10 10 10 10 10
11 12 12 13 13 13 13 13 13 13 13 13 13 13 13 13 13 13 13 13 13 13 13 13 13 13 13 13 12 12 12 12 12 12 12 11 11 11 10 10 10 9 9
11 11 12 12 12 13 13 13 13 13 13 13 13 13 13 13 13 13 13 13 13 13 13 13 13 13 13 12 12 12 12 12 11 11 11 11 11 10 10 10 9 9 9
10 10 11 11 12 12 12 12 13 13 13 13 12 12 12 12 12 12 12 13 12 12 12 12 12 12 12 12 12 12 12 11 11 11 10 10 10 10 9 9 9 8 8
9 10 10 11 11 11 12 12 12 12 12 12 12 12 12 12 12 12 12 12 12 12 12 12 12 12 12 12 11 11 11 11 11 10 10 10 9 9 9 9 8 8 7
8 9 9 10 10 11 11 11 11 11 11 12 12 12 12 12 12 12 12 12 12 12 12 11 11 11 11 11 11 11 10 10 10 10 9 9 9 9 8 8 8 7 7
8 8 9 9 9 10 10 10 10 11 11 11 11 11 11 11 11 11 11 11 11 11 11 11 11 11 10 10 10 10 10 10 9 9 9 8 8 8 8 7 7 7 7
7 8 8 8 9 9 9 9 10 10 10 10 11 11 11 11 11 11 11 11 11 10 10 10 10 10 10 10 9 9 9 9 9 8 8 7 7 7 7 7 6 6 6
7 7 7 7 8 8 8 9 9 9 9 9 10 10 10 10 10 10 10 10 10 10 9 9 9 9 9 9 9 8 8 8 7 7 7 7 6 6 6 6 6 5 5
6 6 6 6 7 7 7 8 8 8 8 8 9 9 9 9 9 9 9 9 9 9 9 9 8 8 8 8 8 7 7 7 7 6 6 6 5 5 5 5 5 4 4
5 6 5 6 6 6 7 7 7 7 7 8 8 8 8 8 8 8 8 8 8 8 8 8 7 7 7 7 7 6 6 6 6 5 5 5 5 4 4 4 4 4 4
5 5 5 5 5 5 5 6 6 7 7 7 7 7 7 7 7 7 7 7 7 7 7 7 7 7 6 6 6 6 6 5 5 5 5 4 4 4 3 3 3 3 3
4 4 5 5 5 5 5 5 5 6 6 6 6 6 6 6 6 6 7 7 6 6 6 6 6 6 6 6 5 5 5 5 4 4 4 3 3 3 3 3 3 2 2
4 4 4 4 4 4 5 5 5 5 5 6 6 6 6 6 6 6 6 6 6 6 6 6 6 5 5 5 5 4 4 4 4 3 3 3 3 2 2 2 2 2 2
3 3 3 4 4 4 4 4 5 5 5 5 5 5 5 5 5 5 5 5 5 5 5 5 5 5 5 4 4 4 4 3 3 3 2 2 2 2 1 1 1 1 1
2 3 3 3 3 3 3 4 4 4 4 4 4 4 5 5 5 5 5 5 5 5 5 4 4 4 4 4 3 3 3 3 2 2 2 2 1 1 1 1 1 0 0
2 2 2 2 3 3 3 3 3 3 3 4 4 4 4 4 4 4 4 4 4 4 4 4 4 3 3 3 3 2 2 2 2 2 1 1 1 0 0 -0 -0 -0 -1
1 1 1 2 2 2 2 2 3 3 3 3 3 3 3 3 3 3 3 3 3 3 3 3 3 3 2 2 2 2 2 1 1 1 1 0 -0 -0 -1 -1 -1 -1 -1
1 1 1 1 1 1 2 2 2 2 2 2 2 2 3 3 3 3 3 3 3 3 2 2 2 2 2 2 1 1 1 1 0 0 -0 -0 -1 -1 -1 -1 -1 -2 -2
0 0 0 0 1 1 1 1 1 1 2 2 2 2 2 2 2 2 2 2 2 2 2 2 2 1 1 1 1 1 0 0 -0 -1 -1 -1 -1 -1 -1 -1 -2 -2 -2
-0 -0 -0 -0 0 0 1 1 1 1 1 1 1 1 1 1 1 1 1 1 1 1 1 1 1 1 1 0 0 0 -0 -0 -1 -1 -1 -1 -1 -1 -2 -2 -2 -2 -2
Wind_Speed
4 3 3 3 4 6 7 9 10 9 9 8 8 8 8 7 7 7 10 13 13 13 11 7 7 7 6 6 6 4 3 3 2 1 2 3 3 3 3 3 3 3 5
3 3 2 3 5 7 7 8 8 8 9 8 7 5 6 6 7 6 8 12 12 13 11 8 7 7 6 6 6 5 3 3 3 3 1 3 4 2 1 1 1 1 1
4 3 2 3 4 6 8 8 8 8 8 7 5 4 4 3 4 5 6 7 10 11 10 9 6 6 6 7 6 6 6 4 3 3 3 2 3 3 2 1 1 1 1
3 3 3 3 3 4 4 5 6 7 7 8 8 9 8 7 6 6 5 5 7 8 9 9 8 7 6 6 6 6 5 4 4 3 3 3 3 2 3 2 1 0 0
3 4 4 3 2 1 2 4 5 5 5 7 8 8 6 5 4 5 6 6 5 7 8 9 8 7 6 6 6 6 6 5 4 4 3 3 3 4 4 4 3 1 1
3 3 3 2 1 1 1 2 3 3 4 5 6 7 8 7 6 7 7 7 5 5 6 7 7 6 6 6 6 6 6 6 5 4 4 3 3 3 4 5 4 4 2
3 3 4 3 2 1 1 1 3 3 4 5 5 6 8 8 8 7 8 6 5 5 7 6 6 5 5 5 5 5 5 5 5 5 4 4 4 3 3 4 4 4 2
3 4 3 3 2 2 1 0 2 2 3 4 4 4 5 4 5 6 6 6 6 6 6 6 5 5 5 5 5 4 4 4 5 5 4 3 3 3 3 3 3 4 3
5 5 5 4 3 2 2 1 0 0 1 2 3 2 3 4 6 6 6 5 4 4 6 6 6 5 5 5 5 4 4 4 3 3 3 3 2 2 2 2 3 3 4
5 5 5 4 3 2 1 2 1 1 1 1 2 2 2 2 3 4 5 5 4 4 6 5 5 5 4 4 4 3 3 3 2 2 3 2 1 1 1 1 2 3 4
5 5 4 4 3 3 2 2 1 0 1 1 2 2 1 1 2 3 4 5 5 5 6 5 5 5 4 4 4 3 4 4 3 2 2 2 1 1 1 1 1 2 2
5 5 4 4 4 3 3 2 1 1 0 1 2 2 2 2 3 3 3 4 5 5 5 5 5 5 4 4 5 5 4 4 4 3 3 2 2 2 1 1 1 1 2
6 6 5 5 4 4 3 2 2 1 1 1 2 2 2 3 3 3 4 4 5 5 5 5 6 5 5 5 4 4 4 4 4 4 4 3 3 2 1 1 1 1 1
5 5 5 5 5 4 3 3 3 2 1 1 1 2 2 3 3 3 3 4 5 5 5 5 5 5 5 5 5 5 4 3 3 3 3 3 3 3 2 1 1 1 1
6 6 5 5 5 5 4 3 3 2 1 1 1 1 1 2 3 3 4 4 4 5 5 6 5 5 4 4 5 5 4 4 3 2 2 2 3 3 3 2 2 2 1
7 6 6 6 6 6 5 4 4 3 0 1 1 1 2 2 3 3 4 4 5 5 5 5 5 5 4 5 6 5 4 4 4 3 2 2 2 2 2 2 2 3 2
8 7 7 6 6 6 5 5 4 3 1 0 1 1 2 3 3 3 4 5 5 5 5 4 5 4 4 6 6 6 5 4 4 4 3 2 2 2 2 2 2 1 0
8 8 7 7 6 5 5 5 4 3 1 1 1 2 2 3 3 4 5 5 4 4 4 4 4 4 4 6 6 6 4 4 3 3 3 3 2 2 3 3 2 1 2
7 7 7 6 6 6 5 4 4 3 2 2 2 2 3 3 4 4 5 4 4 4 4 4 5 4 4 6 7 6 4 3 3 3 3 4 3 5 5 4 2 1 1
7 7 7 6 6 6 5 4 4 3 3 3 3 2 2 3 4 5 4 3 4 4 4 4 4 5 4 6 7 6 4 3 3 2 3 5 5 6 6 4 4 3 2
7 7 6 6 6 5 5 4 4 4 4 3 2 2 1 2 3 3 3 4 4 4 4 4 3 4 4 6 7 7 4 5 4 3 3 3 7 7 7 6 5 5 3
8 7 6 7 6 5 4 4 5 5 4 3 2 2 1 1 2 3 3 4 5 4 4 3 2 2 3 5 6 8 7 7 5 4 4 4 7 7 7 5 6 6 4
7 6 6 7 6 5 4 5 6 5 3 3 3 2 1 1 1 3 4 4 4 4 4 4 3 3 2 4 8 8 8 8 5 4 7 7 7 6 4 5 6 4 3
7 7 6 6 7 6 5 5 5 4 3 3 2 2 1 0 0 1 2 3 4 4 4 4 4 3 3 3 3 4 4 6 5 4 5 6 7 5 4 4 3 3 4
7 6 6 7 7 6 6 5 4 3 3 2 2 1 1 0 0 1 2 3 3 4 5 5 5 5 5 6 8 6 5 4 5 4 2 2 2 3 3 3 3 3 3
7 7 7 7 7 6 6 6 5 3 2 2 2 1 1 1 0 0 1 1 2 4 5 6 5 5 7 7 8 10 10 10 9 5 4 4 5 5 5 5 4 4 5
Wind_Direction
265 274 238 210 207 204 200 197 193 188 182 185 184 185 188 185 183 186 189 191 193 191 189 191 183 181 188 191 184 175 182 195 164 155 300 294 265 256 256 251 245 247 247
290 288 263 207 205 207 205 202 201 192 191 195 189 186 178 182 186 185 189 191 190 189 191 187 190 187 188 187 185 177 169 179 166 160 159 314 325 323 293 293 252 259 246
271 282 272 245 213 205 205 206 205 199 198 194 181 169 155 151 174 189 195 191 187 187 187 186 184 186 189 194 192 185 179 186 191 180 168 191 251 300 309 327 346 351 360
284 286 284 279 241 222 195 192 199 202 202 195 189 188 192 192 196 190 190 183 185 189 188 184 183 185 190 189 188 185 185 177 193 202 211 209 187 219 292 299 306 5 312
282 286 289 283 268 226 184 173 181 194 198 196 190 189 194 197 181 170 179 187 185 187 190 189 186 186 188 191 186 185 188 192 193 188 184 208 218 215 233 271 279 284 243
299 302 313 328 343 30 82 137 154 183 185 186 185 185 190 189 176 181 191 193 189 194 195 189 188 186 185 188 190 189 191 197 196 193 187 187 196 205 216 244 257 265 255
309 323 335 345 344 1 46 125 146 190 197 183 189 192 194 187 185 191 196 192 193 201 202 191 190 188 185 182 180 187 196 198 197 202 208 213 221 205 205 234 256 256 258
339 333 335 343 342 353 359 21 150 195 200 187 193 197 190 180 180 186 186 188 197 201 191 183 179 179 173 175 179 189 197 195 203 208 206 213 222 213 208 215 238 264 260
352 350 348 345 342 353 357 322 185 215 218 183 178 194 186 183 185 184 184 180 183 179 171 171 172 170 166 170 176 183 189 191 201 201 198 205 212 206 208 216 218 233 264
358 359 353 347 341 343 3 24 53 192 215 171 172 184 186 195 181 165 168 166 166 159 150 153 154 154 153 152 154 154 152 155 162 164 165 180 190 168 176 214 229 229 241
349 347 341 338 342 357 11 23 17 47 134 157 155 148 150 141 144 153 159 156 146 147 146 148 147 144 139 137 139 140 141 143 137 134 150 162 150 153 177 206 222 238 239
349 344 339 345 354 0 5 8 11 7 324 165 147 146 137 132 137 148 149 144 141 142 139 139 136 134 133 136 143 144 143 147 151 151 149 158 144 156 171 182 216 232 231
350 350 354 355 350 351 355 354 2 357 353 104 138 137 137 140 147 149 141 137 137 135 132 137 140 138 139 137 135 138 143 150 156 158 161 167 160 178 187 175 206 233 241
347 352 351 348 344 344 342 339 338 334 332 113 133 148 156 154 151 141 136 140 142 142 140 136 135 136 136 134 133 133 133 134 138 147 156 165 175 184 183 189 205 207 217
350 350 345 340 341 341 338 335 329 328 335 114 137 180 154 138 133 135 137 136 137 139 136 131 127 129 134 142 143 140 142 143 140 136 145 160 167 180 182 186 193 184 197
343 342 339 337 336 331 328 327 319 313 302 165 206 186 154 147 150 153 146 142 141 137 136 140 141 141 144 153 155 150 150 153 154 156 152 152 151 158 157 161 165 171 181
335 332 329 325 323 321 320 318 312 313 310 219 231 207 184 177 177 169 161 161 158 149 147 148 145 145 154 162 164 162 152 157 164 167 166 160 153 127 109 101 76 62 112
333 330 328 326 325 324 325 320 317 315 293 249 243 220 196 194 185 177 179 171 158 157 157 157 156 155 171 172 168 163 146 151 164 173 175 171 167 168 154 133 100 58 19
326 324 323 320 324 328 328 330 327 323 307 281 273 252 212 198 190 191 187 174 160 161 161 162 164 165 177 179 173 160 144 156 174 180 180 180 187 202 181 156 157 163 337
333 332 333 335 335 329 329 334 321 315 301 290 283 270 225 205 204 197 185 172 167 169 162 165 171 173 183 188 185 173 155 170 184 188 197 206 207 212 197 174 178 205 226
330 333 336 335 329 327 337 337 324 312 307 305 306 297 253 217 202 186 175 166 163 161 162 167 175 181 191 195 196 192 174 181 187 195 203 214 219 218 211 198 193 217 201
331 334 336 333 331 334 339 331 319 315 320 322 323 310 286 231 177 168 167 163 163 165 170 174 192 198 198 202 207 208 206 196 189 203 205 211 220 220 220 211 210 216 191
326 326 325 325 329 334 332 320 316 319 324 331 326 314 300 238 174 173 172 167 170 177 186 189 205 218 205 212 220 219 216 212 201 202 208 213 219 217 222 221 217 207 170
322 323 322 322 323 329 330 319 316 322 326 323 320 318 310 325 144 169 176 183 187 190 194 199 207 216 218 216 213 213 218 216 209 202 210 216 217 204 206 220 221 187 187
319 322 318 314 314 319 323 328 328 328 321 310 307 313 312 275 232 205 211 211 212 205 201 203 199 202 222 225 212 201 200 193 191 169 160 169 179 194 201 205 209 202 202
316 318 318 315 312 314 316 319 318 314 309 306 303 300 298 283 241 243 319 290 251 241 232 225 219 223 228 230 224 222 222 217 204 188 189 202 206 213 214 215 215 211 215
Height
1468 1470 1472 1474 1477 1480 1484 1488 1491 1494 1498 1501 1504 1507 1510 1514 1518 1521 1524 1527 1530 1532 1535 1537 1540 1542 1544 1546 1548 1550 1551 1553 1554 1555 1554 1555 1555 1555 1555 1555 1555 1555 1555
1467 1469 1471 1473 1475 1477 1480 1484 1488 1491 1495 1498 1501 1505 1508 1511 1515 1518 1521 1524 1526 1529 1532 1534 1536 1538 1540 1542 1544 1546 1547 1549 1550 1551 1551 1551 1551 1550 1551 1551 1551 1551 1551
1465 1467 1469 1472 1474 1476 1478 1481 1484 1488 1491 1494 1498 1501 1505 1508 1511 1514 1516 1519 1522 1525 1528 1530 1532 1534 1537 1538 1540 1542 1544 1545 1547 1548 1549 1549 1547 1547 1547 1547 1547 1547 1548
1464 1466 1468 1470 1472 1475 1477 1479 1482 1485 1488 1490 1494 1496 1499 1502 1505 1509 1512 1515 1518 1521 1524 1526 1528 1530 1532 1534 1536 1538 1540 1542 1542 1543 1544 1546 1545 1545 1543 1543 1544 1544 1543
1464 1465 1467 1468 1470 1472 1474 1476 1479 1481 1484 1486 1489 1492 1495 1498 1501 1505 1508 1511 1513 1516 1519 1521 1523 1526 1528 1530 1532 1534 1536 1537 1538 1539 1540 1540 1541 1541 1541 1539 1539 1539 1539
1464 1464 1466 1467 1469 1471 1472 1474 1476 1478 1481 1483 1485 1488 1491 1494 1497 1500 1503 1506 1509 1511 1514 1517 1519 1521 1523 1525 1528 1530 1531 1532 1533 1534 1535 1535 1536 1536 1536 1535 1534 1533 1533
1462 1463 1464 1466 1467 1469 1471 1473 1474 1477 1478 1481 1482 1485 1488 1490 1492 1496 1499 1502 1504 1506 1509 1512 1514 1516 1518 1521 1523 1525 1526 1527 1528 1529 1529 1530 1531 1531 1531 1530 1529 1528 1527
1461 1462 1463 1464 1466 1468 1469 1471 1473 1475 1477 1478 1480 1482 1484 1486 1489 1492 1495 1498 1500 1503 1505 1507 1509 1511 1514 1516 1518 1519 1521 1522 1523 1523 1524 1524 1525 1525 1525 1525 1525 1523 1522
1462 1462 1463 1464 1465 1466 1468 1470 1471 1473 1475 1477 1479 1480 1481 1483 1486 1489 1492 1493 1496 1498 1501 1503 1504 1506 1508 1511 1513 1514 1515 1516 1517 1518 1518 1519 1519 1520 1520 1520 1520 1520 1517
1462 1462 1463 1463 1464 1465 1467 1468 1470 1471 1473 1474 1476 1478 1479 1481 1482 1485 1487 1489 1492 1494 1495 1498 1499 1501 1503 1505 1507 1509 1510 1511 1512 1512 1513 1513 1513 1513 1514 1514 1514 1514 1513
1463 1463 1463 1463 1463 1463 1464 1466 1467 1469 1470 1471 1473 1475 1476 1478 1479 1481 1483 1485 1487 1489 1491 1493 1495 1496 1498 1500 1502 1503 1505 1506 1506 1506 1507 1507 1507 1508 1508 1508 1509 1508 1508
1464 1463 1462 1462 1462 1462 1463 1464 1465 1466 1467 1468 1470 1471 1473 1474 1476 1477 1479 1481 1483 1485 1486 1489 1490 1492 1493 1495 1497 1498 1499 1500 1501 1501 1502 1502 1502 1503 1503 1503 1503 1503 1503
1464 1463 1462 1461 1461 1460 1461 1461 1462 1463 1464 1465 1466 1467 1469 1471 1472 1473 1475 1477 1479 1480 1482 1484 1485 1487 1488 1490 1492 1493 1494 1495 1495 1496 1497 1497 1497 1498 1498 1498 1498 1498 1498
1464 1462 1461 1460 1459 1459 1459 1459 1459 1460 1461 1462 1463 1464 1465 1467 1468 1469 1471 1472 1475 1476 1478 1479 1481 1482 1484 1485 1487 1488 1489 1490 1491 1491 1492 1492 1493 1493 1493 1493 1493 1493 1493
1464 1463 1462 1460 1459 1458 1458 1458 1458 1458 1458 1459 1460 1461 1461 1462 1464 1465 1467 1468 1470 1472 1474 1475 1476 1478 1480 1481 1482 1484 1485 1485 1486 1487 1487 1488 1488 1488 1488 1489 1489 1489 1489
1464 1463 1461 1460 1458 1457 1456 1456 1455 1456 1456 1456 1457 1457 1458 1459 1460 1462 1463 1464 1466 1468 1469 1471 1472 1474 1475 1477 1478 1479 1480 1481 1482 1482 1483 1483 1484 1484 1484 1484 1485 1485 1485
1464 1462 1460 1459 1457 1456 1455 1454 1453 1453 1453 1453 1454 1454 1455 1456 1457 1458 1459 1461 1462 1464 1466 1467 1469 1470 1471 1473 1474 1475 1476 1477 1478 1478 1479 1479 1480 1480 1480 1480 1481 1481 1481
1464 1462 1460 1458 1456 1455 1453 1452 1451 1451 1450 1450 1450 1451 1451 1452 1453 1454 1455 1457 1458 1460 1462 1463 1465 1466 1468 1469 1470 1471 1472 1473 1474 1474 1475 1475 1475 1476 1476 1476 1477 1477 1477
1464 1461 1459 1457 1455 1453 1451 1450 1449 1449 1448 1447 1447 1447 1447 1448 1449 1450 1451 1453 1454 1456 1458 1459 1461 1463 1464 1465 1466 1467 1468 1469 1470 1470 1471 1471 1471 1472 1472 1473 1473 1473 1473
1462 1460 1458 1455 1453 1451 1450 1448 1447 1446 1445 1444 1444 1444 1444 1444 1445 1446 1448 1449 1451 1452 1454 1456 1457 1459 1460 1461 1462 1463 1464 1465 1466 1466 1467 1467 1468 1468 1468 1469 1469 1470 1470
1461 1458 1456 1454 1452 1450 1448 1446 1444 1443 1442 1442 1441 1441 1441 1441 1442 1443 1444 1446 1447 1449 1450 1452 1453 1455 1456 1457 1458 1459 1460 1461 1462 1462 1463 1463 1464 1464 1464 1465 1465 1466 1466
1458 1456 1453 1451 1449 1447 1445 1443 1442 1441 1440 1439 1438 1438 1438 1438 1439 1440 1441 1442 1443 1445 1446 1448 1449 1451 1452 1453 1454 1455 1456 1457 1458 1458 1459 1459 1460 1460 1461 1461 1461 1462 1462
1456 1453 1451 1449 1447 1445 1443 1441 1439 1438 1437 1436 1435 1435 1435 1435 1436 1436 1437 1439 1440 1441 1442 1444 1445 1447 1448 1449 1450 1451 1452 1452 1453 1454 1455 1455 1456 1456 1457 1457 1458 1458 1458
1453 1451 1449 1446 1444 1442 1440 1439 1437 1435 1434 1433 1433 1432 1432 1432 1432 1433 1434 1435 1436 1437 1438 1439 1441 1442 1443 1445 1446 1446 1447 1448 1449 1449 1450 1451 1452 1452 1453 1453 1454 1454 1455
1451 1449 1446 1444 1442 1440 1438 1436 1434 1433 1432 1431 1430 1430 1429 1429 1429 1430 1431 1431 1432 1433 1434 1435 1436 1437 1439 1440 1441 1442 1443 1444 1445 1445 1446 1447 1448 1448 1449 1449 1450 1450 1451
1448 1446 1443 1441 1439 1437 1435 1434 1432 1431 1429 1428 1428 1427 1426 1426 1426 1426 1427 1427 1429 1430 1430 1431 1432 1433 1435 1436 1436 1437 1438 1439 1440 1441 1441 1442 1443 1444 1444 1445 1445 1446 1447